Regional Weather Roundup
Issued by NWS

Home | Current Version | Previous Version | Graphics & Text | Print | Product List | Glossary On
Versions: 1 2 3 4 5 6 7 8 9 10 11 12 13 14 15 16 17 18 19 20 21 22 23 24 25 26 27 28
000
ASUS45 KBOI 211010
RWRID

IDAHO REGIONAL WEATHER ROUNDUP
NATIONAL WEATHER SERVICE BOISE ID
300 AM MST WED FEB 21 2018

NOTE: "FAIR" INDICATES FEW OR NO CLOUDS BELOW 12000 FEET
WITH NO SIGNIFICANT WEATHER AND/OR OBSTRUCTIONS TO VISIBILITY

IDZ012-014-211100-
SOUTHWEST IDAHO


CITY           SKY/WX    TMP DP  RH WIND       PRES   REMARKS
BOISE          PTCLDY    23   5  46 SE10      30.14F WCI  12
CALDWELL       PTCLDY    23   7  50 SE14G22   30.17S WCI  11
MOUNTAIN HOME  MOCLDY    19  10  68 E14       30.16S WCI   5
$$

IDZ016-017-211100-
SOUTHCENTRAL IDAHO


CITY           SKY/WX    TMP DP  RH WIND       PRES   REMARKS
BURLEY         CLOUDY    12   6  77 NE3       30.11F
JEROME         MOCLDY    16   6  65 NE8       30.12F WCI   5
TWIN FALLS     MOCLDY    17   5  59 S9        30.10F WCI   6
$$

IDZ019>023-211100-
SOUTHEAST IDAHO


CITY           SKY/WX    TMP DP  RH WIND       PRES   REMARKS
IDAHO FALLS    PTCLDY     8   3  80 N5        30.12S WCI   0
POCATELLO      MOCLDY    15   5  64 S7        30.12F WCI   5
REXBURG        MOCLDY    11   3  70 SW6       30.10F WCI   1
$$

IDZ006-010-011-018-031-032-211100-
CENTRAL IDAHO MOUNTAINS


CITY           SKY/WX    TMP DP  RH WIND       PRES   REMARKS
MCCALL         CLOUDY     6   2  83 CALM      30.01S
HAILEY         PTCLDY     7   0  72 NW9       30.10R WCI  -7
STANLEY          N/A     -5 -12  72 CALM      30.00R
SALMON         CLOUDY    11   5  77 CALM      30.12R
CHALLIS        CLEAR      6  -3  66 CALM      30.05R
$$

IDZ002-004-006-007-026-211100-
NORTHERN IDAHO


CITY           SKY/WX    TMP DP  RH WIND       PRES   REMARKS
LEWISTON       CLOUDY    23  13  65 NE7       30.27R WCI  15
LOWELL           N/A     20  13  74 CALM      30.31R
COEUR D`ALENE  CLEAR      1  -2  87 E3        30.25S
MULLAN PASS    CLEAR     -1  -7  75 N3        29.92S
$$




USA.gov is the U.S. government's official web portal to all federal, state and local government web resources and services.